• MPC Preparation (Info)

  • MPEC 2013-W03 : 2013 VD17

    The following Minor Planet Electronic Circular may be linked-to from your own Web pages, but must not otherwise be redistributed electronically.

    A form allowing access to any MPEC is at the bottom of this page.


    Read MPEC 2013-W02 Read MPEC 2013-W04


    M.P.E.C. 2013-W03                                Issued 2013 Nov. 16, 12:46 UT
    
         The Minor Planet Electronic Circulars contain information on unusual
             minor planets and routine data on comets.  They are published
       on behalf of Commission 20 of the International Astronomical Union by the
              Minor Planet Center, Smithsonian Astrophysical Observatory,
                              Cambridge, MA 02138, U.S.A.
    
                 Prepared using the Tamkin Foundation Computer Network
    
                                  MPC@CFA.HARVARD.EDU
                URL https://www.minorplanetcenter.net/    ISSN 1523-6714
    
                                       2013 VD17
    
    Observations:
         K13V17D* C2013 11 14.24215 05 20 32.88 +21 03 09.5          18.6 VqEW003G96
         K13V17D  C2013 11 14.26065 05 20 32.56 +20 58 00.8          18.5 VqEW003G96
         K13V17D  C2013 11 14.26849 05 20 32.33 +20 55 51.1          18.9 VqEW003G96
         K13V17D  C2013 11 14.33276 05 20 29.05 +20 38 22.8          19.2 VqEW003G96
         K13V17D  C2013 11 14.33339 05 20 28.99 +20 38 13.0          19.0 VqEW003G96
         K13V17D  C2013 11 14.33464 05 20 28.91 +20 37 52.6          19.4 VqEW003G96
         K13V17D KC2013 11 14.41981605 20 14.12 +20 14 07.9          19.5 VrEW003H21
         K13V17D KC2013 11 14.42541705 20 14.08 +20 12 39.3          19.5 VrEW003H21
         K13V17D KC2013 11 14.42992605 20 13.95 +20 11 28.5          19.5 VrEW003H21
         K13V17D KC2013 11 14.92036 05 21 28.48 +18 24 34.9                qEW003J95
         K13V17D KC2013 11 14.92930 05 21 28.46 +18 23 01.9                qEW003J95
         K13V17D KC2013 11 14.94061 05 21 28.45 +18 21 03.1          19.8 RqEW003J95
         K13V17D  C2013 11 15.30087 05 21 46.06 +17 25 02.6                oEW003711
         K13V17D  C2013 11 15.30273 05 21 45.92 +17 24 46.4                oEW003711
         K13V17D  C2013 11 15.35538 05 21 41.80 +17 17 17.5                oEW003711
         K13V17D  C2013 11 15.35917 05 21 41.49 +17 16 45.6                oEW003711
         K13V17D KC2013 11 15.39486 05 21 36.59 +17 10 54.4          19.8 RqEW003H36
         K13V17D KC2013 11 15.40956 05 21 35.58 +17 08 48.3          20.4 RqEW003H36
    
    Observer details:
    711 McDonald Observatory.  Observer J. G. Ries.  2.1-m reflector + CCD + focal
        reducer.
    G96 Mt. Lemmon Survey.  Observer J. A. Johnson.  Measurers A. Boattini,
        E. J. Christensen, A. R. Gibbs, A. D. Grauer, R. E. Hill, J. A. Johnson,
        R. A. Kowalski, S. M. Larson, F. C. Shelly.  1.5-m reflector + CCD.
    H21 Astronomical Research Observatory, Westfield.  Observer R. Holmes.
        Measurers S. Foglia, L. Buzzi, H. Devore, A. Kostin, T. Linder,
        T. Lister. T. Vorobjov.  0.61-m f/4.0 astrograph + CCD.
    H36 Sandlot Observatory, Scranton.  Observer G. Hug.  0.56-m reflector + CCD.
    J95 Great Shefford.  Observer P. Birtwhistle.  0.40-m f/6.0 Schmidt-Cassegrain
        + CCD.
    
    Orbital elements:
    2013 VD17                                                Earth MOID = 0.0037 AU
    Epoch 2013 Nov. 4.0 TT = JDT 2456600.5                  MPC
    M   5.95155              (2000.0)            P               Q
    n   0.28410360     Peri.  138.29477     +0.98228626     -0.17654096
    a   2.2916673      Node   231.98263     +0.14378525     +0.92509997
    e   0.6041189      Incl.    4.57391     +0.12016448     +0.33618943
    P   3.47           H   26.7           G   0.15           U   5
    Residuals in seconds of arc
    131114 G96  0.2+  0.3-    131114 H21  0.3-  0.0     131115 711  0.2+  0.2-
    131114 G96  0.2+  0.3-    131114 H21  0.5+  0.2-    131115 711  0.1+  0.5-
    131114 G96  0.1+  0.0     131114 H21  0.5-  0.1-    131115 711  0.1-  0.5-
    131114 G96  0.3+  0.1+    131114 J95  0.5+  0.2-    131115 711  0.2-  0.2-
    131114 G96  0.0   0.5+    131114 J95  0.3-  0.5+    131115 H36  1.8+  1.3+
    131114 G96  0.1+  0.2+    131114 J95  0.1-  0.3-    131115 H36  1.0-  0.1-
    
    Ephemeris:
    2013 VD17                a,e,i = 2.29, 0.60, 5                   q = 0.9072
    Date    TT    R. A. (2000) Decl.     Delta      r     Elong.  Phase     V
    2013 10 17    17 13 36.8 -08 43 35   0.1791  0.9082    55.8   114.8    27.2
    ...
    2013 11 01    17 24 05.2 -06 34 04   0.07437 0.9412    44.7   132.1    26.8
    ...
    2013 11 09    17 29 04.5 +01 44 20   0.01947 0.9762    42.0   137.3    24.6
    ...
    2013 11 15    05 21 19.3 +18 14 42   0.02246 1.0089   151.4    28.0    19.7
    2013 11 16    05 22 09.5 +16 00 56   0.02928 1.0149   151.9    27.3    20.3
    2013 11 17    05 22 36.4 +14 37 55   0.03613 1.0209   152.5    26.6    20.7
    ...
    2013 11 23    05 22 40.1 +11 34 09   0.07777 1.0595   157.0    21.3    22.3
    ...
    2013 12 01    05 20 39.4 +10 43 11   0.1354  1.1164   163.3    14.7    23.4
    ...
    2013 12 16    05 16 59.2 +11 02 39   0.2555  1.2345   167.1    10.2    24.9
    
    A. U. Tomatic                (C) Copyright 2013 MPC           M.P.E.C. 2013-W03
    

    Read MPEC 2013-W02 Read MPEC 2013-W04


    MPEC number:

    Enter an MPEC number in one of the following forms:

    • 1997-B01 (the full form)
    • J97B01 (the packed version of the full form)
    • B01 (the abbreviated form)